Home   Weather   Nanning   Past weeks

Flag for China Past Weather in Nanning, Guangxi, China — Yesterday and Last 2 Weeks

Now
84 °F

Partly sunny.


Feels Like: 96 °F
Forecast: 74 / 80 °F
Wind: 3 mph from South

Location: Nanning Airport

Current Time: May 23, 2017 at 8:34:21 pm

Latest Report: May 23, 2017 at 7:00 pm


Visibility: N/A

Pressure: 29.65 "Hg

Humidity: 84%

Dew Point: 79 °F

Location of NanningLocation

Past Weather in Nanning — Graph

°F

Nanning Temperature Yesterday

Maximum temperature yesterday: 90 °F (at 3:00 pm)
Minimum temperature yesterday: 77 °F (at 4:00 am)
Average temperature yesterday: 83 °F

High & Low Weather Summary for the Past Weeks

 TemperatureHumidityPressure
High90 °F (May 10, 2:00 pm)100% (May 18, 7:00 am)29.98 "Hg (May 18, 7:00 am)
Low68 °F (May 18, 7:00 am)45% (May 16, 12:00 pm)29.62 "Hg (May 20, 6:00 pm)
Average78 °F80%29.81 "Hg
* Reported May 8 7:00 pm — May 23 7:00 pm, Nanning. Weather by CustomWeather, © 2017

Note: Actual official high and low records may vary slightly from our data, if they occured in-between our weather recording intervals... More about our weather records

Advertising

Nanning Weather History for the Previous 24 Hours

Scroll right to see more
 ConditionsComfort  
Time TempWeatherWind HumidityBarometerVisibility
7:00 pm
Tue, May 23
84 °FPartly sunny.3 mph84%29.65 "HgN/A
6:00 pm86 °FPartly sunny.3 mph79%29.65 "HgN/A
5:00 pm82 °FSprinkles. Scattered clouds.1 mph89%29.62 "HgN/A
4:00 pm84 °FThunderstorms. Scattered clouds.10 mph79%29.65 "HgN/A
3:00 pm90 °FSprinkles. Scattered clouds.1 mph67%29.65 "HgN/A
2:00 pm90 °FScattered clouds.3 mph71%29.68 "HgN/A
1:00 pm90 °FBroken clouds.6 mph67%29.71 "HgN/A
12:00 pm90 °FScattered clouds.6 mph67%29.71 "HgN/A
11:00 am88 °FScattered clouds.3 mph70%29.74 "HgN/A
10:00 am88 °FScattered clouds.8 mph70%29.74 "HgN/A
9:00 am84 °FPassing clouds.8 mph79%29.74 "HgN/A
8:00 am82 °FBroken clouds.3 mph89%29.74 "Hg5 mi
7:00 am81 °FScattered clouds.1 mph89%29.71 "Hg5 mi
6:00 am81 °FPassing clouds.3 mph89%29.71 "Hg5 mi
5:00 am79 °FPassing clouds.1 mph94%29.68 "HgN/A
4:00 am79 °FPassing clouds.3 mph94%29.68 "HgN/A
3:00 am79 °FPassing clouds.3 mph94%29.68 "HgN/A
2:00 am81 °FClear.6 mph89%29.71 "Hg10 mi
1:00 am79 °FPassing clouds.3 mph94%29.71 "HgN/A
12:00 am81 °FPassing clouds.3 mph89%29.71 "HgN/A
11:00 pm
Mon, May 22
82 °FPassing clouds.1 mph84%29.71 "HgN/A
10:00 pm82 °FPassing clouds.3 mph84%29.68 "HgN/A
9:00 pm84 °FPartly cloudy.6 mph79%29.65 "HgN/A
8:00 pm84 °FPartly cloudy.3 mph79%29.65 "HgN/A
Weather by CustomWeather, © 2017

See weather overviewHow to use our weather pages